Home > Weather > Leuven > Past weeks

Flag for Belgium Past Weather in Leuven, Belgium — Yesterday and Last 2 Weeks

Now
70 °F

Scattered clouds.


Feels Like: 70 °F
Forecast: 61 / 73 °F
Wind: 12 mph from Southwest

Location: Brussels National Airport

Current Time: Jul 27, 2016 at 5:28:13 PM

Latest Report: Jul 27, 2016 at 4:50 PM


Visibility: N/A

Pressure: 30.04 "Hg

Humidity: 60%

Dew Point: 55 °F

Location of LeuvenLocation

Past Weather in Leuven — Graph

°F

Leuven Temperature Yesterday

Maximum temperature yesterday: 73 °F (at 1:50 PM)
Minimum temperature yesterday: 57 °F (at 5:20 AM)
Average temperature yesterday: 66 °F

High & Low Weather Summary for the Past Weeks

 TemperatureHumidityPressure
High91 °F (Jul 20, 1:50 PM)100% (Jul 23, 1:20 AM)30.30 "Hg (Jul 23, 1:20 AM)
Low48 °F (Jul 15, 4:50 AM)36% (Jul 20, 1:50 PM)29.86 "Hg (Jul 20, 11:50 AM)
Average67 °F73%30.11 "Hg
* Reported Jul 12 3:20 PM — Jul 27 3:50 PM, Leuven, Weather by CustomWeather, © 2016

Note: Actual official high and low records may vary slightly from our data, if they occured in-between our weather recording intervals... More about our weather records

Advertising

Leuven Weather History for the Previous 24 Hours

Scroll right to see more
 ConditionsComfort  
Time TempWeatherWind HumidityBarometerVisibility
3:50 PM
Wed, Jul 27
70 °FPartly sunny.14 mph60%30.04 "HgN/A
3:20 PM72 °FPartly sunny.14 mph57%30.04 "HgN/A
2:50 PM70 °FPartly sunny.13 mph60%30.04 "HgN/A
2:20 PM68 °FPartly sunny.12 mph64%30.07 "HgN/A
1:50 PM70 °FPartly sunny.13 mph60%30.07 "HgN/A
1:20 PM68 °FBroken clouds.10 mph64%30.07 "HgN/A
12:50 PM68 °FBroken clouds.10 mph69%30.07 "HgN/A
12:20 PM66 °FBroken clouds.8 mph73%30.07 "HgN/A
11:50 AM66 °FScattered clouds.10 mph73%30.07 "HgN/A
11:20 AM66 °FScattered clouds.7 mph73%30.07 "HgN/A
10:50 AM66 °FScattered clouds.8 mph73%30.07 "HgN/A
10:20 AM66 °FPassing clouds.8 mph73%30.07 "HgN/A
9:50 AM64 °FPassing clouds.8 mph73%30.07 "HgN/A
9:20 AM63 °FPassing clouds.9 mph77%30.07 "HgN/A
8:50 AM63 °FPassing clouds.8 mph77%30.07 "HgN/A
8:20 AM61 °FPassing clouds.9 mph83%30.09 "HgN/A
7:50 AM59 °FPassing clouds.8 mph88%30.07 "HgN/A
7:20 AM57 °FPassing clouds.6 mph88%30.07 "HgN/A
6:50 AM57 °FPassing clouds.6 mph88%30.07 "HgN/A
6:20 AM55 °FPassing clouds.5 mph94%30.07 "HgN/A
5:50 AM57 °FPassing clouds.6 mph88%30.07 "HgN/A
5:20 AM57 °FPassing clouds.6 mph88%30.09 "HgN/A
4:50 AM57 °FPassing clouds.5 mph88%30.09 "HgN/A
4:20 AM59 °FClear.6 mph82%30.09 "Hg10 mi
3:50 AM61 °FPassing clouds.7 mph77%30.09 "HgN/A
3:20 AM61 °FPassing clouds.7 mph77%30.12 "HgN/A
2:50 AM63 °FPassing clouds.6 mph73%30.12 "HgN/A
2:20 AM63 °FPassing clouds.7 mph73%30.12 "HgN/A
1:50 AM63 °FPassing clouds.5 mph83%30.12 "HgN/A
1:20 AM63 °FPassing clouds.3 mph77%30.12 "HgN/A
12:50 AM64 °FPassing clouds.3 mph78%30.12 "HgN/A
12:20 AM64 °FPassing clouds.5 mph78%30.12 "HgN/A
11:50 PM
Tue, Jul 26
64 °FPassing clouds.5 mph78%30.12 "HgN/A
11:20 PM64 °FPassing clouds.6 mph73%30.15 "HgN/A
10:50 PM64 °FPassing clouds.7 mph73%30.12 "HgN/A
10:20 PM64 °FSunny.6 mph73%30.12 "Hg10 mi
9:50 PM66 °FPassing clouds.8 mph68%30.12 "HgN/A
9:20 PM68 °FPassing clouds.8 mph64%30.12 "HgN/A
8:50 PM68 °FSunny.9 mph64%30.12 "Hg10 mi
8:20 PM70 °FSunny.5 mph60%30.12 "Hg10 mi
7:50 PM70 °FSunny.6 mph60%30.12 "Hg10 mi
7:20 PM72 °FSunny.6 mph53%30.12 "Hg10 mi
6:50 PM72 °FPassing clouds.5 mph57%30.12 "HgN/A
6:20 PM72 °FPassing clouds.7 mph57%30.12 "HgN/A
5:50 PM72 °FPassing clouds.8 mph57%30.12 "HgN/A
5:20 PM72 °FPassing clouds.6 mph61%30.12 "HgN/A
Weather by CustomWeather, © 2016

See weather overviewHow to use our weather pages